Year,Month,Day,Hour,Minute,Value (Times are PST for temperature in C)
2020,01,03,00,00,5.20
2020,01,03,00,01,5.10
2020,01,03,00,02,5.20
2020,01,03,00,03,5.20
2020,01,03,00,04,5.20
2020,01,03,00,05,5.20
2020,01,03,00,06,5.20
2020,01,03,00,07,5.20
2020,01,03,00,08,5.20
2020,01,03,00,09,5.20
2020,01,03,00,10,5.20
2020,01,03,00,11,5.20
2020,01,03,00,12,5.30
2020,01,03,00,13,5.30
2020,01,03,00,14,5.30
2020,01,03,00,15,5.30
2020,01,03,00,16,5.30
2020,01,03,00,17,5.30
2020,01,03,00,18,5.30
2020,01,03,00,19,5.30
2020,01,03,00,20,5.30
2020,01,03,00,21,5.30
2020,01,03,00,22,5.30
2020,01,03,00,23,5.30
2020,01,03,00,24,5.40
2020,01,03,00,25,5.40
2020,01,03,00,26,5.40
2020,01,03,00,27,5.40
2020,01,03,00,28,5.40
2020,01,03,00,29,5.40
2020,01,03,00,30,5.40
2020,01,03,00,31,5.40
2020,01,03,00,32,5.40
2020,01,03,00,33,5.40
2020,01,03,00,34,5.40
2020,01,03,00,35,5.40
2020,01,03,00,36,5.40
2020,01,03,00,37,5.40
2020,01,03,00,38,5.40
2020,01,03,00,39,5.50
2020,01,03,00,40,5.40
2020,01,03,00,41,5.50
2020,01,03,00,42,5.50
2020,01,03,00,43,5.50
2020,01,03,00,44,5.50
2020,01,03,00,45,5.50
2020,01,03,00,46,5.50
2020,01,03,00,47,5.50
2020,01,03,00,48,5.50
2020,01,03,00,49,5.50
2020,01,03,00,50,5.50
2020,01,03,00,51,5.60
2020,01,03,00,52,5.60
2020,01,03,00,53,5.60
2020,01,03,00,54,5.60
2020,01,03,00,55,5.60
2020,01,03,00,56,5.60
2020,01,03,00,57,5.60
2020,01,03,00,58,5.60
2020,01,03,00,59,5.60
2020,01,03,01,00,5.60
2020,01,03,01,01,5.60
2020,01,03,01,02,5.60
2020,01,03,01,03,5.60
2020,01,03,01,04,5.60
2020,01,03,01,05,5.60
2020,01,03,01,06,5.60
2020,01,03,01,07,5.60
2020,01,03,01,08,5.60
2020,01,03,01,09,5.60
2020,01,03,01,10,5.60
2020,01,03,01,11,5.70
2020,01,03,01,12,5.70
2020,01,03,01,13,5.70
2020,01,03,01,14,5.70
2020,01,03,01,15,5.70
2020,01,03,01,16,5.70
2020,01,03,01,17,5.70
2020,01,03,01,18,5.80
2020,01,03,01,19,5.80
2020,01,03,01,20,5.80
2020,01,03,01,21,5.80
2020,01,03,01,22,5.80
2020,01,03,01,23,5.80
2020,01,03,01,24,5.80
2020,01,03,01,25,5.90
2020,01,03,01,26,5.90
2020,01,03,01,27,5.90
2020,01,03,01,28,5.90
2020,01,03,01,29,5.90
2020,01,03,01,30,5.90
2020,01,03,01,31,5.90
2020,01,03,01,32,5.90
2020,01,03,01,33,5.90
2020,01,03,01,34,6.00
2020,01,03,01,35,6.00
2020,01,03,01,36,6.00
2020,01,03,01,37,6.00
2020,01,03,01,38,6.10
2020,01,03,01,39,6.10
2020,01,03,01,40,6.10
2020,01,03,01,41,6.10
2020,01,03,01,42,6.10
2020,01,03,01,43,6.20
2020,01,03,01,44,6.20
2020,01,03,01,45,6.20
2020,01,03,01,46,6.20
2020,01,03,01,47,6.20
2020,01,03,01,48,6.20
2020,01,03,01,49,6.20
2020,01,03,01,50,6.20
2020,01,03,01,51,6.20
2020,01,03,01,52,6.20
2020,01,03,01,53,6.20
2020,01,03,01,54,6.20
2020,01,03,01,55,6.20
2020,01,03,01,56,6.20
2020,01,03,01,57,6.20
2020,01,03,01,58,6.20
2020,01,03,01,59,6.20
2020,01,03,02,00,6.20
2020,01,03,02,01,6.20
2020,01,03,02,02,6.20
2020,01,03,02,03,6.20
2020,01,03,02,04,6.20
2020,01,03,02,05,6.20
2020,01,03,02,06,6.30
2020,01,03,02,07,6.30
2020,01,03,02,08,6.30
2020,01,03,02,09,6.30
2020,01,03,02,10,6.30
2020,01,03,02,11,6.30
2020,01,03,02,12,6.30
2020,01,03,02,13,6.30
2020,01,03,02,14,6.30
2020,01,03,02,15,6.30
2020,01,03,02,16,6.30
2020,01,03,02,17,6.30
2020,01,03,02,18,6.40
2020,01,03,02,19,6.40
2020,01,03,02,20,6.40
2020,01,03,02,21,6.40
2020,01,03,02,22,6.40
2020,01,03,02,23,6.40
2020,01,03,02,24,6.50
2020,01,03,02,25,6.50
2020,01,03,02,26,6.50
2020,01,03,02,27,6.50
2020,01,03,02,28,6.60
2020,01,03,02,29,6.60
2020,01,03,02,30,6.60
2020,01,03,02,31,6.60
2020,01,03,02,32,6.60
2020,01,03,02,33,6.70
2020,01,03,02,34,6.70
2020,01,03,02,35,6.70
2020,01,03,02,36,6.70
2020,01,03,02,37,6.70
2020,01,03,02,38,6.70
2020,01,03,02,39,6.70
2020,01,03,02,40,6.70
2020,01,03,02,41,6.80
2020,01,03,02,42,6.80
2020,01,03,02,43,6.80
2020,01,03,02,44,6.80
2020,01,03,02,45,6.80
2020,01,03,02,46,6.80
2020,01,03,02,47,6.80
2020,01,03,02,48,6.90
2020,01,03,02,49,6.90
2020,01,03,02,50,6.90
2020,01,03,02,51,6.90
2020,01,03,02,52,6.90
2020,01,03,02,53,6.90
2020,01,03,02,54,6.90
2020,01,03,02,55,6.90
2020,01,03,02,56,6.90
2020,01,03,02,57,6.90
2020,01,03,02,58,6.90
2020,01,03,02,59,6.90
2020,01,03,03,00,6.90
2020,01,03,03,01,6.90
2020,01,03,03,02,6.90
2020,01,03,03,03,6.90
2020,01,03,03,04,6.90
2020,01,03,03,05,6.90
2020,01,03,03,06,6.90
2020,01,03,03,07,6.90
2020,01,03,03,08,6.90
2020,01,03,03,09,6.90
2020,01,03,03,10,7.00
2020,01,03,03,11,6.90
2020,01,03,03,12,6.90
2020,01,03,03,13,6.90
2020,01,03,03,14,7.00
2020,01,03,03,15,7.00
2020,01,03,03,16,7.00
2020,01,03,03,17,7.00
2020,01,03,03,18,7.00
2020,01,03,03,19,7.00
2020,01,03,03,20,7.00
2020,01,03,03,21,7.00
2020,01,03,03,22,7.00
2020,01,03,03,23,7.00
2020,01,03,03,24,7.00
2020,01,03,03,25,7.10
2020,01,03,03,26,7.10
2020,01,03,03,27,7.10
2020,01,03,03,28,7.10
2020,01,03,03,29,7.10
2020,01,03,03,30,7.10
2020,01,03,03,31,7.10
2020,01,03,03,32,7.10
2020,01,03,03,33,7.10
2020,01,03,03,34,7.10
2020,01,03,03,35,7.10
2020,01,03,03,36,7.10
2020,01,03,03,37,7.10
2020,01,03,03,38,7.10
2020,01,03,03,39,7.10
2020,01,03,03,40,7.10
2020,01,03,03,41,7.10
2020,01,03,03,42,7.10
2020,01,03,03,43,7.10
2020,01,03,03,44,7.10
2020,01,03,03,45,7.10
2020,01,03,03,46,7.10
2020,01,03,03,47,7.10
2020,01,03,03,48,7.10
2020,01,03,03,49,7.10
2020,01,03,03,50,7.10
2020,01,03,03,51,7.20
2020,01,03,03,52,7.20
2020,01,03,03,53,7.10
2020,01,03,03,54,7.20
2020,01,03,03,55,7.20
2020,01,03,03,56,7.20
2020,01,03,03,57,7.20
2020,01,03,03,58,7.20
2020,01,03,03,59,7.30
2020,01,03,04,00,7.30
2020,01,03,04,01,7.30
2020,01,03,04,02,7.30
2020,01,03,04,03,7.30
2020,01,03,04,04,7.30
2020,01,03,04,05,7.40
2020,01,03,04,06,7.40
2020,01,03,04,07,7.40
2020,01,03,04,08,7.40
2020,01,03,04,09,7.40
2020,01,03,04,10,7.40
2020,01,03,04,11,7.40
2020,01,03,04,12,7.50
2020,01,03,04,13,7.50
2020,01,03,04,14,7.50
2020,01,03,04,15,7.50
2020,01,03,04,16,7.50
2020,01,03,04,17,7.60
2020,01,03,04,18,7.50
2020,01,03,04,19,7.60
2020,01,03,04,20,7.60
2020,01,03,04,21,7.60
2020,01,03,04,22,7.60
2020,01,03,04,23,7.60
2020,01,03,04,24,7.60
2020,01,03,04,25,7.60
2020,01,03,04,26,7.60
2020,01,03,04,27,7.60
2020,01,03,04,28,7.60
2020,01,03,04,29,7.60
2020,01,03,04,30,7.60
2020,01,03,04,31,7.60
2020,01,03,04,32,7.60
2020,01,03,04,33,7.60
2020,01,03,04,34,7.70
2020,01,03,04,35,7.70
2020,01,03,04,36,7.70
2020,01,03,04,37,7.70
2020,01,03,04,38,7.70
2020,01,03,04,39,7.70
2020,01,03,04,40,7.70
2020,01,03,04,41,7.70
2020,01,03,04,42,7.70
2020,01,03,04,43,7.70
2020,01,03,04,44,7.70
2020,01,03,04,45,7.70
2020,01,03,04,46,7.70
2020,01,03,04,47,7.70
2020,01,03,04,48,7.70
2020,01,03,04,49,7.70
2020,01,03,04,50,7.70
2020,01,03,04,51,7.80
2020,01,03,04,52,7.80
2020,01,03,04,53,7.80
2020,01,03,04,54,7.80
2020,01,03,04,55,7.80
2020,01,03,04,56,7.80
2020,01,03,04,57,7.80
2020,01,03,04,58,7.80
2020,01,03,04,59,7.80
2020,01,03,05,00,7.80
2020,01,03,05,01,7.80
2020,01,03,05,02,7.80
2020,01,03,05,03,7.80
2020,01,03,05,04,7.80
2020,01,03,05,05,7.80
2020,01,03,05,06,7.80
2020,01,03,05,07,7.80
2020,01,03,05,08,7.80
2020,01,03,05,09,7.90
2020,01,03,05,10,7.90
2020,01,03,05,11,7.90
2020,01,03,05,12,7.90
2020,01,03,05,13,7.90
2020,01,03,05,14,7.90
2020,01,03,05,15,7.90
2020,01,03,05,16,7.90
2020,01,03,05,17,7.90
2020,01,03,05,18,7.90
2020,01,03,05,19,7.90
2020,01,03,05,20,7.90
2020,01,03,05,21,7.90
2020,01,03,05,22,7.90
2020,01,03,05,23,7.90
2020,01,03,05,24,7.90
2020,01,03,05,25,7.90
2020,01,03,05,26,7.90
2020,01,03,05,27,7.90
2020,01,03,05,28,7.90
2020,01,03,05,29,7.90
2020,01,03,05,30,7.90
2020,01,03,05,31,7.90
2020,01,03,05,32,7.90
2020,01,03,05,33,7.90
2020,01,03,05,34,7.90
2020,01,03,05,35,7.90
2020,01,03,05,36,7.90
2020,01,03,05,37,7.90
2020,01,03,05,38,7.90
2020,01,03,05,39,7.90
2020,01,03,05,40,7.90
2020,01,03,05,41,7.90
2020,01,03,05,42,7.90
2020,01,03,05,43,7.90
2020,01,03,05,44,7.90
2020,01,03,05,45,7.90
2020,01,03,05,46,8.00
2020,01,03,05,47,7.90
2020,01,03,05,48,7.90
2020,01,03,05,49,7.90
2020,01,03,05,50,8.00
2020,01,03,05,51,7.90
2020,01,03,05,52,8.00
2020,01,03,05,53,8.00
2020,01,03,05,54,8.00
2020,01,03,05,55,8.00
2020,01,03,05,56,8.00
2020,01,03,05,57,8.00
2020,01,03,05,58,8.00
2020,01,03,05,59,8.10
2020,01,03,06,00,8.10
2020,01,03,06,01,8.00
2020,01,03,06,02,8.10
2020,01,03,06,03,8.10
2020,01,03,06,04,8.10
2020,01,03,06,05,8.10
2020,01,03,06,06,8.10
2020,01,03,06,07,8.10
2020,01,03,06,08,8.10
2020,01,03,06,09,8.10
2020,01,03,06,10,8.10
2020,01,03,06,11,8.10
2020,01,03,06,12,8.10
2020,01,03,06,13,8.10
2020,01,03,06,14,8.20
2020,01,03,06,15,8.20
2020,01,03,06,16,8.20
2020,01,03,06,17,8.20
2020,01,03,06,18,8.20
2020,01,03,06,19,8.20
2020,01,03,06,20,8.20
2020,01,03,06,21,8.30
2020,01,03,06,22,8.30
2020,01,03,06,23,8.30
2020,01,03,06,24,8.30
2020,01,03,06,25,8.30
2020,01,03,06,26,8.30
2020,01,03,06,27,8.30
2020,01,03,06,28,8.30
2020,01,03,06,29,8.30
2020,01,03,06,30,8.30
2020,01,03,06,31,8.30
2020,01,03,06,32,8.30
2020,01,03,06,33,8.30
2020,01,03,06,34,8.40
2020,01,03,06,35,8.40
2020,01,03,06,36,8.40
2020,01,03,06,37,8.40
2020,01,03,06,38,8.40
2020,01,03,06,39,8.40
2020,01,03,06,40,8.40
2020,01,03,06,41,8.40
2020,01,03,06,42,8.40
2020,01,03,06,43,8.40
2020,01,03,06,44,8.40
2020,01,03,06,45,8.50
2020,01,03,06,46,8.50
2020,01,03,06,47,8.50
2020,01,03,06,48,8.50
2020,01,03,06,49,8.50
2020,01,03,06,50,8.50
2020,01,03,06,51,8.50
2020,01,03,06,52,8.50
2020,01,03,06,53,8.50
2020,01,03,06,54,8.50
2020,01,03,06,55,8.50
2020,01,03,06,56,8.60
2020,01,03,06,57,8.60
2020,01,03,06,58,8.60
2020,01,03,06,59,8.60
2020,01,03,07,00,8.60
2020,01,03,07,01,8.60
2020,01,03,07,02,8.60
2020,01,03,07,03,8.60
2020,01,03,07,04,8.60
2020,01,03,07,05,8.60
2020,01,03,07,06,8.60
2020,01,03,07,07,8.60
2020,01,03,07,08,8.60
2020,01,03,07,09,8.60
2020,01,03,07,10,8.70
2020,01,03,07,11,8.70
2020,01,03,07,12,8.70
2020,01,03,07,13,8.70
2020,01,03,07,14,8.70
2020,01,03,07,15,8.70
2020,01,03,07,16,8.70
2020,01,03,07,17,8.70
2020,01,03,07,18,8.70
2020,01,03,07,19,8.70
2020,01,03,07,20,8.70
2020,01,03,07,21,8.70
2020,01,03,07,22,8.70
2020,01,03,07,23,8.70
2020,01,03,07,24,8.70
2020,01,03,07,25,8.70
2020,01,03,07,26,8.70
2020,01,03,07,27,8.70
2020,01,03,07,28,8.80
2020,01,03,07,29,9.00
2020,01,03,07,30,9.00
2020,01,03,07,31,9.10
2020,01,03,07,32,9.10
2020,01,03,07,33,9.10
2020,01,03,07,34,9.10
2020,01,03,07,35,9.20
2020,01,03,07,36,9.20
2020,01,03,07,37,9.20
2020,01,03,07,38,9.30
2020,01,03,07,39,9.30
2020,01,03,07,40,9.40
2020,01,03,07,41,9.50
2020,01,03,07,42,9.60
2020,01,03,07,43,9.60
2020,01,03,07,44,9.70
2020,01,03,07,45,9.70
2020,01,03,07,46,9.80
2020,01,03,07,47,9.80
2020,01,03,07,48,9.80
2020,01,03,07,49,9.80
2020,01,03,07,50,9.80
2020,01,03,07,51,9.80
2020,01,03,07,52,9.90
2020,01,03,07,53,10.10
2020,01,03,07,54,10.30
2020,01,03,07,55,10.40
2020,01,03,07,56,10.50
2020,01,03,07,57,10.60
2020,01,03,07,58,10.70
2020,01,03,07,59,10.60
2020,01,03,08,00,10.60
2020,01,03,08,01,10.50
2020,01,03,08,02,10.50
2020,01,03,08,03,10.40
2020,01,03,08,04,10.30
2020,01,03,08,05,10.20
2020,01,03,08,06,10.20
2020,01,03,08,07,10.20
2020,01,03,08,08,10.30
2020,01,03,08,09,10.30
2020,01,03,08,10,10.30
2020,01,03,08,11,10.30
2020,01,03,08,12,10.30
2020,01,03,08,13,10.40
2020,01,03,08,14,10.40
2020,01,03,08,15,10.50
2020,01,03,08,16,10.50
2020,01,03,08,17,10.60
2020,01,03,08,18,10.50
2020,01,03,08,19,10.50
2020,01,03,08,20,10.40
2020,01,03,08,21,10.40
2020,01,03,08,22,10.40
2020,01,03,08,23,10.40
2020,01,03,08,24,10.40
2020,01,03,08,25,10.40
2020,01,03,08,26,10.40
2020,01,03,08,27,10.40
2020,01,03,08,28,10.50
2020,01,03,08,29,10.50
2020,01,03,08,30,10.60
2020,01,03,08,31,10.60
2020,01,03,08,32,10.70
2020,01,03,08,33,10.70
2020,01,03,08,34,10.80
2020,01,03,08,35,10.90
2020,01,03,08,36,10.90
2020,01,03,08,37,10.90
2020,01,03,08,38,10.90
2020,01,03,08,39,10.90
2020,01,03,08,40,10.90
2020,01,03,08,41,10.90
2020,01,03,08,42,10.80
2020,01,03,08,43,10.80
2020,01,03,08,44,10.80
2020,01,03,08,45,10.80
2020,01,03,08,46,10.90
2020,01,03,08,47,10.90
2020,01,03,08,48,11.00
2020,01,03,08,49,11.10
2020,01,03,08,50,11.20
2020,01,03,08,51,11.30
2020,01,03,08,52,11.30
2020,01,03,08,53,11.40
2020,01,03,08,54,11.40
2020,01,03,08,55,11.40
2020,01,03,08,56,11.50
2020,01,03,08,57,11.50
2020,01,03,08,58,11.60
2020,01,03,08,59,11.70
2020,01,03,09,00,11.70
2020,01,03,09,01,11.70
2020,01,03,09,02,11.80
2020,01,03,09,03,11.80
2020,01,03,09,04,11.80
2020,01,03,09,05,11.80
2020,01,03,09,06,11.80
2020,01,03,09,07,11.80
2020,01,03,09,08,11.80
2020,01,03,09,09,11.80
2020,01,03,09,10,11.80
2020,01,03,09,11,11.80
2020,01,03,09,12,11.80
2020,01,03,09,13,11.80
2020,01,03,09,14,11.90
2020,01,03,09,15,11.90
2020,01,03,09,16,12.00
2020,01,03,09,17,12.00
2020,01,03,09,18,12.00
2020,01,03,09,19,12.00
2020,01,03,09,20,12.00
2020,01,03,09,21,12.10
2020,01,03,09,22,12.10
2020,01,03,09,23,12.10
2020,01,03,09,24,12.10
2020,01,03,09,25,12.20
2020,01,03,09,26,12.20
2020,01,03,09,27,12.20
2020,01,03,09,28,12.20
2020,01,03,09,29,12.30
2020,01,03,09,30,12.30
2020,01,03,09,31,12.30
2020,01,03,09,32,12.30
2020,01,03,09,33,12.30
2020,01,03,09,34,12.30
2020,01,03,09,35,12.30
2020,01,03,09,36,12.20
2020,01,03,09,37,12.20
2020,01,03,09,38,12.10
2020,01,03,09,39,12.10
2020,01,03,09,40,12.10
2020,01,03,09,41,12.00
2020,01,03,09,42,11.90
2020,01,03,09,43,11.90
2020,01,03,09,44,11.90
2020,01,03,09,45,11.80
2020,01,03,09,46,11.80
2020,01,03,09,47,11.80
2020,01,03,09,48,11.70
2020,01,03,09,49,11.70
2020,01,03,09,50,11.60
2020,01,03,09,51,11.50
2020,01,03,09,52,11.50
2020,01,03,09,53,11.40
2020,01,03,09,54,11.30
2020,01,03,09,55,11.30
2020,01,03,09,56,11.20
2020,01,03,09,57,11.20
2020,01,03,09,58,11.10
2020,01,03,09,59,11.10
2020,01,03,10,00,11.00
2020,01,03,10,01,11.00
2020,01,03,10,02,11.00
2020,01,03,10,03,10.90
2020,01,03,10,04,10.90
2020,01,03,10,05,10.90
2020,01,03,10,06,10.80
2020,01,03,10,07,10.80
2020,01,03,10,08,10.80
2020,01,03,10,09,10.80
2020,01,03,10,10,10.80
2020,01,03,10,11,10.80
2020,01,03,10,12,10.80
2020,01,03,10,13,10.80
2020,01,03,10,14,10.80
2020,01,03,10,15,10.80
2020,01,03,10,16,10.80
2020,01,03,10,17,10.80
2020,01,03,10,18,10.80
2020,01,03,10,19,10.80
2020,01,03,10,20,10.80
2020,01,03,10,21,10.80
2020,01,03,10,22,10.80
2020,01,03,10,23,10.80
2020,01,03,10,24,10.80
2020,01,03,10,25,10.80
2020,01,03,10,26,10.80
2020,01,03,10,27,10.80
2020,01,03,10,28,10.80
2020,01,03,10,29,10.80
2020,01,03,10,30,10.80
2020,01,03,10,31,10.80
2020,01,03,10,32,10.80
2020,01,03,10,33,10.80
2020,01,03,10,34,10.80
2020,01,03,10,35,10.80
2020,01,03,10,36,10.80
2020,01,03,10,37,10.80
2020,01,03,10,38,10.80
2020,01,03,10,39,10.80
2020,01,03,10,40,10.80
2020,01,03,10,41,10.80
2020,01,03,10,42,10.80
2020,01,03,10,43,10.80
2020,01,03,10,44,10.90
2020,01,03,10,45,10.80
2020,01,03,10,46,10.80
2020,01,03,10,47,10.90
2020,01,03,10,48,10.80
2020,01,03,10,49,10.90
2020,01,03,10,50,10.80
2020,01,03,10,51,10.90
2020,01,03,10,52,10.90
2020,01,03,10,53,10.90
2020,01,03,10,54,10.90
2020,01,03,10,55,10.90
2020,01,03,10,56,10.80
2020,01,03,10,57,10.80
2020,01,03,10,58,10.80
2020,01,03,10,59,10.80
2020,01,03,11,00,10.80
2020,01,03,11,01,10.80
2020,01,03,11,02,10.80
2020,01,03,11,03,10.80
2020,01,03,11,04,10.80
2020,01,03,11,05,10.70
2020,01,03,11,06,10.70
2020,01,03,11,07,10.70
2020,01,03,11,08,10.70
2020,01,03,11,09,10.70
2020,01,03,11,10,10.60
2020,01,03,11,11,10.60
2020,01,03,11,12,10.60
2020,01,03,11,13,10.60
2020,01,03,11,14,10.50
2020,01,03,11,15,10.50
2020,01,03,11,16,10.50
2020,01,03,11,17,10.50
2020,01,03,11,18,10.50
2020,01,03,11,19,10.50
2020,01,03,11,20,10.40
2020,01,03,11,21,10.40
2020,01,03,11,22,10.40
2020,01,03,11,23,10.40
2020,01,03,11,24,10.40
2020,01,03,11,25,10.30
2020,01,03,11,26,10.30
2020,01,03,11,27,10.30
2020,01,03,11,28,10.30
2020,01,03,11,29,10.30
2020,01,03,11,30,10.30
2020,01,03,11,31,10.20
2020,01,03,11,32,10.20
2020,01,03,11,33,10.20
2020,01,03,11,34,10.20
2020,01,03,11,35,10.20
2020,01,03,11,36,10.20
2020,01,03,11,37,10.20
2020,01,03,11,38,10.20
2020,01,03,11,39,10.20
2020,01,03,11,40,10.20
2020,01,03,11,41,10.20
2020,01,03,11,42,10.20
2020,01,03,11,43,10.10
2020,01,03,11,44,10.10
2020,01,03,11,45,10.10
2020,01,03,11,46,10.10
2020,01,03,11,47,10.10
2020,01,03,11,48,10.10
2020,01,03,11,49,10.10
2020,01,03,11,50,10.10
2020,01,03,11,51,10.10
2020,01,03,11,52,10.10
2020,01,03,11,53,10.10
2020,01,03,11,54,10.10
2020,01,03,11,55,10.10
2020,01,03,11,56,10.10
2020,01,03,11,57,10.10
2020,01,03,11,58,10.10
2020,01,03,11,59,10.00
2020,01,03,12,00,10.10
2020,01,03,12,01,10.00
2020,01,03,12,02,10.00
2020,01,03,12,03,10.00
2020,01,03,12,04,10.00
2020,01,03,12,05,10.00
2020,01,03,12,06,10.00
2020,01,03,12,07,10.00
2020,01,03,12,08,10.10
2020,01,03,12,09,10.10
2020,01,03,12,10,10.10
2020,01,03,12,11,10.10
2020,01,03,12,12,10.10
2020,01,03,12,13,10.10
2020,01,03,12,14,10.10
2020,01,03,12,15,10.10
2020,01,03,12,16,10.10
2020,01,03,12,17,10.10
2020,01,03,12,18,10.10
2020,01,03,12,19,10.10
2020,01,03,12,20,10.10
2020,01,03,12,21,10.20
2020,01,03,12,22,10.20
2020,01,03,12,23,10.20
2020,01,03,12,24,10.20
2020,01,03,12,25,10.20
2020,01,03,12,26,10.20
2020,01,03,12,27,10.20
2020,01,03,12,28,10.20
2020,01,03,12,29,10.20
2020,01,03,12,30,10.20
2020,01,03,12,31,10.20
2020,01,03,12,32,10.20
2020,01,03,12,33,10.20
2020,01,03,12,34,10.20
2020,01,03,12,35,10.20
2020,01,03,12,36,10.30
2020,01,03,12,37,10.30
2020,01,03,12,38,10.30
2020,01,03,12,39,10.30
2020,01,03,12,40,10.30
2020,01,03,12,41,10.30
2020,01,03,12,42,10.30
2020,01,03,12,43,10.40
2020,01,03,12,44,10.40
2020,01,03,12,45,10.40
2020,01,03,12,46,10.40
2020,01,03,12,47,10.40
2020,01,03,12,48,10.50
2020,01,03,12,49,10.50
2020,01,03,12,50,10.50
2020,01,03,12,51,10.50
2020,01,03,12,52,10.50
2020,01,03,12,53,10.60
2020,01,03,12,54,10.60
2020,01,03,12,55,10.60
2020,01,03,12,56,10.60
2020,01,03,12,57,10.60
2020,01,03,12,58,10.60
2020,01,03,12,59,10.60
2020,01,03,13,00,10.60
2020,01,03,13,01,10.70
2020,01,03,13,02,10.70
2020,01,03,13,03,10.70
2020,01,03,13,04,10.70
2020,01,03,13,05,10.70
2020,01,03,13,06,10.70
2020,01,03,13,07,10.70
2020,01,03,13,08,10.70
2020,01,03,13,09,10.70
2020,01,03,13,10,10.80
2020,01,03,13,11,10.70
2020,01,03,13,12,10.80
2020,01,03,13,13,10.70
2020,01,03,13,14,10.70
2020,01,03,13,15,10.80
2020,01,03,13,16,10.70
2020,01,03,13,17,10.80
2020,01,03,13,18,10.70
2020,01,03,13,19,10.70
2020,01,03,13,20,10.70
2020,01,03,13,21,10.70
2020,01,03,13,22,10.70
2020,01,03,13,23,10.70
2020,01,03,13,24,10.70
2020,01,03,13,25,10.80
2020,01,03,13,26,10.80
2020,01,03,13,27,10.80
2020,01,03,13,28,10.70
2020,01,03,13,29,10.70
2020,01,03,13,30,10.70
2020,01,03,13,31,10.70
2020,01,03,13,32,10.70
2020,01,03,13,33,10.70
2020,01,03,13,34,10.60
2020,01,03,13,35,10.60
2020,01,03,13,36,10.60
2020,01,03,13,37,10.60
2020,01,03,13,38,10.60
2020,01,03,13,39,10.60
2020,01,03,13,40,10.50
2020,01,03,13,41,10.50
2020,01,03,13,42,10.50
2020,01,03,13,43,10.50
2020,01,03,13,44,10.50
2020,01,03,13,45,10.50
2020,01,03,13,46,10.50
2020,01,03,13,47,10.50
2020,01,03,13,48,10.50
2020,01,03,13,49,10.50
2020,01,03,13,50,10.50
2020,01,03,13,51,10.50
2020,01,03,13,52,10.50
2020,01,03,13,53,10.60
2020,01,03,13,54,10.60
2020,01,03,13,55,10.60
2020,01,03,13,56,10.60
2020,01,03,13,57,10.60
2020,01,03,13,58,10.60
2020,01,03,13,59,10.50
2020,01,03,14,00,10.60
2020,01,03,14,01,10.50
2020,01,03,14,02,10.50
2020,01,03,14,03,10.60
2020,01,03,14,04,10.60
2020,01,03,14,05,10.60
2020,01,03,14,06,10.60
2020,01,03,14,07,10.60
2020,01,03,14,08,10.50
2020,01,03,14,09,10.50
2020,01,03,14,10,10.50
2020,01,03,14,11,10.50
2020,01,03,14,12,10.50
2020,01,03,14,13,10.40
2020,01,03,14,14,10.40
2020,01,03,14,15,10.40
2020,01,03,14,16,10.40
2020,01,03,14,17,10.40
2020,01,03,14,18,10.40
2020,01,03,14,19,10.40
2020,01,03,14,20,10.40
2020,01,03,14,21,10.40
2020,01,03,14,22,10.40
2020,01,03,14,23,10.40
2020,01,03,14,24,10.40
2020,01,03,14,25,10.40
2020,01,03,14,26,10.50
2020,01,03,14,27,10.50
2020,01,03,14,28,10.50
2020,01,03,14,29,10.50
2020,01,03,14,30,10.50
2020,01,03,14,31,10.60
2020,01,03,14,32,10.60
2020,01,03,14,33,10.60
2020,01,03,14,34,10.60
2020,01,03,14,35,10.60
2020,01,03,14,36,10.60
2020,01,03,14,37,10.70
2020,01,03,14,38,10.70
2020,01,03,14,39,10.70
2020,01,03,14,40,10.70
2020,01,03,14,41,10.70
2020,01,03,14,42,10.80
2020,01,03,14,43,10.70
2020,01,03,14,44,10.80
2020,01,03,14,45,10.70
2020,01,03,14,46,10.70
2020,01,03,14,47,10.70
2020,01,03,14,48,10.70
2020,01,03,14,49,10.70
2020,01,03,14,50,10.70
2020,01,03,14,51,10.70
2020,01,03,14,52,10.70
2020,01,03,14,53,10.70
2020,01,03,14,54,10.70
2020,01,03,14,55,10.70
2020,01,03,14,56,10.70
2020,01,03,14,57,10.70
2020,01,03,14,58,10.70
2020,01,03,14,59,10.80
2020,01,03,15,00,10.70
2020,01,03,15,01,10.70
2020,01,03,15,02,10.70
2020,01,03,15,03,10.70
2020,01,03,15,04,10.70
2020,01,03,15,05,10.70
2020,01,03,15,06,10.80
2020,01,03,15,07,10.80
2020,01,03,15,08,10.80
2020,01,03,15,09,10.80
2020,01,03,15,10,10.80
2020,01,03,15,11,10.80
2020,01,03,15,12,10.80
2020,01,03,15,13,10.80
2020,01,03,15,14,10.80
2020,01,03,15,15,10.80
2020,01,03,15,16,10.80
2020,01,03,15,17,10.80
2020,01,03,15,18,10.80
2020,01,03,15,19,10.80
2020,01,03,15,20,10.80
2020,01,03,15,21,10.80
2020,01,03,15,22,10.80
2020,01,03,15,23,10.70
2020,01,03,15,24,10.70
2020,01,03,15,25,10.70
2020,01,03,15,26,10.70
2020,01,03,15,27,10.70
2020,01,03,15,28,10.70
2020,01,03,15,29,10.70
2020,01,03,15,30,10.70
2020,01,03,15,31,10.60
2020,01,03,15,32,10.70
2020,01,03,15,33,10.70
2020,01,03,15,34,10.70
2020,01,03,15,35,10.60
2020,01,03,15,36,10.60
2020,01,03,15,37,10.60
2020,01,03,15,38,10.60
2020,01,03,15,39,10.60
2020,01,03,15,40,10.60
2020,01,03,15,41,10.60
2020,01,03,15,42,10.60
2020,01,03,15,43,10.50
2020,01,03,15,44,10.50
2020,01,03,15,45,10.50
2020,01,03,15,46,10.50
2020,01,03,15,47,10.50
2020,01,03,15,48,10.50
2020,01,03,15,49,10.50
2020,01,03,15,50,10.40
2020,01,03,15,51,10.40
2020,01,03,15,52,10.40
2020,01,03,15,53,10.40
2020,01,03,15,54,10.40
2020,01,03,15,55,10.40
2020,01,03,15,56,10.40
2020,01,03,15,57,10.40
2020,01,03,15,58,10.40
2020,01,03,15,59,10.40
2020,01,03,16,00,10.40
2020,01,03,16,01,10.40
2020,01,03,16,02,10.40
2020,01,03,16,03,10.40
2020,01,03,16,04,10.40
2020,01,03,16,05,10.40
2020,01,03,16,06,10.30
2020,01,03,16,07,10.30
2020,01,03,16,08,10.30
2020,01,03,16,09,10.30
2020,01,03,16,10,10.30
2020,01,03,16,11,10.20
2020,01,03,16,12,10.20
2020,01,03,16,13,10.20
2020,01,03,16,14,10.20
2020,01,03,16,15,10.20
2020,01,03,16,16,10.20
2020,01,03,16,17,10.20
2020,01,03,16,18,10.10
2020,01,03,16,19,10.10
2020,01,03,16,20,10.10
2020,01,03,16,21,10.10
2020,01,03,16,22,10.00
2020,01,03,16,23,10.00
2020,01,03,16,24,10.00
2020,01,03,16,25,10.00
2020,01,03,16,26,9.90
2020,01,03,16,27,9.90
2020,01,03,16,28,9.90
2020,01,03,16,29,9.90
2020,01,03,16,30,9.90
2020,01,03,16,31,9.90
2020,01,03,16,32,9.80
2020,01,03,16,33,9.80
2020,01,03,16,34,9.80
2020,01,03,16,35,9.80
2020,01,03,16,36,9.80
2020,01,03,16,37,9.80
2020,01,03,16,38,9.80
2020,01,03,16,39,9.80
2020,01,03,16,40,9.80
2020,01,03,16,41,9.80
2020,01,03,16,42,9.70
2020,01,03,16,43,9.70
2020,01,03,16,44,9.70
2020,01,03,16,45,9.60
2020,01,03,16,46,9.60
2020,01,03,16,47,9.60
2020,01,03,16,48,9.60
2020,01,03,16,49,9.60
2020,01,03,16,50,9.60
2020,01,03,16,51,9.50
2020,01,03,16,52,9.50
2020,01,03,16,53,9.50
2020,01,03,16,54,9.50
2020,01,03,16,55,9.50
2020,01,03,16,56,9.40
2020,01,03,16,57,9.40
2020,01,03,16,58,9.40
2020,01,03,16,59,9.40
2020,01,03,17,00,9.40
2020,01,03,17,01,9.40
2020,01,03,17,02,9.40
2020,01,03,17,03,9.40
2020,01,03,17,04,9.40
2020,01,03,17,05,9.40
2020,01,03,17,06,9.40
2020,01,03,17,07,9.30
2020,01,03,17,08,9.30
2020,01,03,17,09,9.40
2020,01,03,17,10,9.40
2020,01,03,17,11,9.40
2020,01,03,17,12,9.30
2020,01,03,17,13,9.40
2020,01,03,17,14,9.30
2020,01,03,17,15,9.30
2020,01,03,17,16,9.30
2020,01,03,17,17,9.30
2020,01,03,17,18,9.30
2020,01,03,17,19,9.30
2020,01,03,17,20,9.30
2020,01,03,17,21,9.30
2020,01,03,17,22,9.30
2020,01,03,17,23,9.30
2020,01,03,17,24,9.30
2020,01,03,17,25,9.30
2020,01,03,17,26,9.30
2020,01,03,17,27,9.30
2020,01,03,17,28,9.30
2020,01,03,17,29,9.30
2020,01,03,17,30,9.30
2020,01,03,17,31,9.30
2020,01,03,17,32,9.30
2020,01,03,17,33,9.30
2020,01,03,17,34,9.30
2020,01,03,17,35,9.30
2020,01,03,17,36,9.30
2020,01,03,17,37,9.30
2020,01,03,17,38,9.30
2020,01,03,17,39,9.30
2020,01,03,17,40,9.30
2020,01,03,17,41,9.30
2020,01,03,17,42,9.30
2020,01,03,17,43,9.30